Quincy, IL

5:29 AM CST on December 13, 2017 (GMT -0600)
Quincy Regional-Baldwin

Weather History for KUIN - March, 2013

Change the Weather History Date:

Friday, March 8, 2013

  Actual Average Record
Temperature  
Mean Temperature 35 °F 39 °F  
Max Temperature 43 °F 48 °F 77 °F (2000)
Min Temperature 26 °F 30 °F 0 °F (1996)
Degree Days  
Heating Degree Days 30 26  
Month to date heating degree days 294 222  
Since 1 July heating degree days 4405 4564  
Cooling Degree Days 0 0  
Month to date cooling degree days 0 0  
Year to date cooling degree days 0 0  
Moisture  
Dew Point 28 °F    
Average Humidity 77    
Maximum Humidity 92    
Minimum Humidity 62    
Precipitation  
Precipitation 0.00 in 0.08 in 1.59 in (1998)
Month to date precipitation 0.19 0.63  
Year to date precipitation 5.66 4.03  
Sea Level Pressure  
Sea Level Pressure 30.32 in    
Wind  
Wind Speed 11 mph (SE)    
Max Wind Speed 16 mph    
Max Gust Speed 21 mph    
Visibility 9 miles    
Events      
T = Trace of Precipitation, MM = Missing Value Source: NWS Daily Summary

Daily Weather History Graph

Daily Weather History Graph

Search for Another Location

Airport or City:

Trip Planner

Search our weather history database for the weather conditions in past years. The results will help you decide how hot, cold, wet, or windy it might be!

Date:

Astronomy

Mar. 08, 2013 Rise Set
Actual Time 6:26 AM CST 6:04 PM CST
Civil Twilight 5:59 AM CST 6:31 PM CST
Nautical Twilight 5:28 AM CST 7:02 PM CST
Astronomical Twilight 4:57 AM CST 7:34 PM CST
Moon 4:11 AM CST (3/8) 3:00 PM CST (3/8)
Length of Visible Light 12h 31m
Length of Day
11h 37m
Waning Crescent, 11% of the Moon is Illuminated
Mar 8
Waning Crescent
Mar 11
New
Mar 19
First Quarter
Mar 27
Full
Apr 2
Last Quarter

Hourly Weather History & Observations

Time (CST) Temp. Windchill Dew Point Humidity Pressure Visibility Wind Dir Wind Speed Gust Speed Precip Events Conditions
12:54 AM 30.0 °F 22.4 °F 25.0 °F 82% 30.37 in 10.0 mi ESE 8.1 mph - N/A   Clear
1:54 AM 28.9 °F 20.4 °F 25.0 °F 85% 30.39 in 8.0 mi SE 9.2 mph - N/A   Clear
2:54 AM 28.9 °F 18.6 °F 25.0 °F 85% 30.38 in 7.0 mi ESE 12.7 mph - N/A   Clear
3:54 AM 27.0 °F 18.0 °F 24.1 °F 89% 30.36 in 7.0 mi SE 9.2 mph - N/A   Clear
4:54 AM 27.0 °F 18.7 °F 23.0 °F 85% 30.36 in 7.0 mi SE 8.1 mph - N/A   Clear
5:54 AM 26.1 °F 18.4 °F 21.9 °F 84% 30.37 in 8.0 mi SE 6.9 mph - N/A   Clear
6:54 AM 28.0 °F 18.1 °F 23.0 °F 81% 30.37 in 9.0 mi SE 11.5 mph - N/A   Clear
7:54 AM 28.0 °F 18.6 °F 24.1 °F 85% 30.40 in 6.0 mi SE 10.4 mph - N/A   Clear
8:54 AM 33.1 °F 24.4 °F 27.0 °F 78% 30.40 in 10.0 mi SE 11.5 mph - N/A   Clear
9:54 AM 35.1 °F 25.9 °F 27.0 °F 72% 30.40 in 10.0 mi SSE 13.8 mph - N/A   Clear
10:54 AM 37.0 °F 29.8 °F 28.0 °F 70% 30.39 in 10.0 mi SSE 10.4 mph - N/A   Clear
11:54 AM 37.9 °F 29.2 °F 28.0 °F 68% 30.36 in 10.0 mi SE 15.0 mph - N/A   Clear
12:54 PM 39.9 °F 33.9 °F 30.0 °F 68% 30.33 in 10.0 mi SE 9.2 mph - N/A   Clear
1:54 PM 39.9 °F 34.5 °F 30.0 °F 68% 30.31 in 10.0 mi SE 8.1 mph - N/A   Clear
2:54 PM 41.0 °F 35.8 °F 30.9 °F 67% 30.30 in 10.0 mi SE 8.1 mph - N/A   Clear
3:54 PM 42.1 °F 37.1 °F 30.9 °F 65% 30.30 in 10.0 mi SE 8.1 mph - N/A   Clear
4:54 PM 43.0 °F 38.8 °F 30.9 °F 62% 30.28 in 10.0 mi ESE 6.9 mph - N/A   Clear
5:54 PM 42.1 °F 37.1 °F 30.9 °F 65% 30.27 in 10.0 mi ESE 8.1 mph - N/A   Clear
6:54 PM 42.1 °F 36.1 °F 30.9 °F 65% 30.25 in 10.0 mi ESE 10.4 mph - N/A   Partly Cloudy
7:54 PM 42.1 °F 34.9 °F 30.9 °F 65% 30.23 in 10.0 mi SE 13.8 mph - N/A   Clear
8:54 PM 41.0 °F 33.9 °F 30.9 °F 67% 30.22 in 10.0 mi SE 12.7 mph - N/A   Overcast
9:54 PM 39.0 °F 31.0 °F 30.9 °F 73% 30.21 in 10.0 mi SE 13.8 mph - N/A   Scattered Clouds
10:54 PM 39.0 °F 31.4 °F 30.9 °F 73% 30.19 in 10.0 mi SE 12.7 mph - N/A   Partly Cloudy
11:54 PM 39.0 °F 30.6 °F 30.9 °F 73% 30.16 in 10.0 mi SE 15.0 mph - N/A   Mostly Cloudy